GFSWCAN_850_thetae_021.txt.gz
Theta_e
295 295 295 296 296 295 295 296 296 296 295 294 295 295 297 297 297 297 296 296 294 294 295 294 294 294 294 294 296 292 293 292 294 294 294 294 293 293 292 293 293 292 294 294 293 293 292 293 291 293 294 292 292 291
293 294 295 294 295 295 295 295 294 294 294 294 295 295 294 295 296 294 295 297 295 294 295 296 295 294 294 295 295 292 295 293 294 295 295 294 294 294 293 293 293 292 293 293 293 293 293 291 292 292 292 292 292 291
292 293 293 294 294 295 295 295 295 295 295 294 295 296 294 294 296 294 294 295 295 294 294 294 294 295 295 294 294 295 293 294 293 293 295 295 294 294 293 293 293 293 293 292 293 292 293 292 291 291 291 291 291 291
292 292 292 292 293 293 294 294 295 295 295 295 295 295 295 295 295 296 295 295 295 294 295 296 295 294 294 294 294 293 294 294 293 293 293 294 294 293 294 294 294 294 293 293 293 292 292 291 291 291 291 290 290 290
292 291 291 291 291 291 291 292 293 294 294 294 294 295 295 295 295 295 295 295 294 294 296 295 294 293 293 293 293 294 293 293 293 293 293 294 293 293 293 293 293 293 293 293 293 292 292 292 291 291 290 290 290 290
291 292 291 291 291 291 291 292 292 293 292 293 294 294 294 296 295 295 296 296 295 294 294 295 294 293 293 292 292 293 293 293 293 293 294 293 293 293 294 293 293 292 292 292 292 292 291 291 291 291 290 290 289 289
290 291 291 290 290 290 291 291 291 291 291 292 292 293 293 293 294 295 294 295 294 294 294 294 293 292 291 292 292 293 293 293 293 293 294 294 293 293 293 293 293 292 292 292 292 291 291 291 291 290 290 289 288 287
289 289 289 289 289 290 290 291 291 291 291 291 291 291 292 293 294 294 293 293 293 294 293 294 293 290 290 290 292 291 292 291 292 293 293 294 293 293 294 293 292 292 292 292 292 291 291 290 289 289 288 287 286 284
288 288 288 289 289 289 289 290 290 291 291 291 291 292 292 293 294 294 293 293 293 293 294 293 294 293 288 291 291 290 291 293 292 293 293 293 293 294 293 292 292 292 291 291 291 290 288 288 287 286 284 284 282 282
287 287 287 288 289 289 289 289 290 290 290 291 291 292 293 293 292 293 294 293 293 293 292 294 293 294 290 289 290 291 290 292 293 292 292 293 293 292 292 292 291 290 290 289 286 285 284 283 282 281 279 278 279 279
287 287 287 287 287 287 288 288 288 289 290 290 292 292 292 292 293 293 294 294 294 293 292 293 293 291 288 290 291 290 292 292 292 292 292 292 292 292 291 291 290 289 286 284 282 281 280 280 279 277 277 276 276 275
286 286 286 287 287 287 287 287 287 288 289 289 290 291 291 292 292 293 294 293 293 294 291 291 291 292 288 289 290 289 290 290 291 287 290 291 291 289 288 286 285 283 282 281 279 279 278 277 276 276 275 274 274 274
286 286 286 286 287 287 287 287 287 287 288 289 290 291 291 292 293 292 292 293 293 288 287 288 289 290 288 289 290 290 290 290 284 288 289 290 287 283 281 280 280 279 278 277 276 276 275 274 274 274 274 273 273 273
285 285 285 285 286 286 287 287 287 287 288 289 290 291 291 292 292 292 293 293 290 289 287 289 289 289 289 290 291 290 288 285 288 288 288 290 286 281 277 276 276 275 275 274 274 273 273 273 273 273 272 271 271 270
284 285 285 285 286 286 286 287 287 287 288 289 290 290 291 287 283 284 285 284 286 288 287 287 287 288 289 289 289 288 285 287 287 288 290 282 278 276 274 273 273 273 272 272 272 272 271 271 270 270 270 269 268 268
284 285 286 286 286 286 286 286 286 287 288 288 287 286 280 286 284 280 278 283 284 285 287 287 288 289 289 289 289 288 287 286 288 287 277 275 274 273 273 272 271 271 270 271 271 271 270 269 268 268 267 267 266 266
284 285 285 285 285 285 286 287 287 287 285 282 281 277 280 281 282 282 281 281 282 285 289 288 288 288 288 288 288 288 288 289 279 273 273 273 273 272 272 271 271 270 270 269 269 268 267 267 266 266 266 265 264 264
283 284 284 285 286 286 286 286 284 281 278 274 280 274 274 273 274 276 277 278 282 283 284 287 285 286 288 287 287 287 275 269 270 270 270 270 270 270 270 270 269 269 269 268 267 267 266 266 265 264 264 263 263 262
281 282 284 284 285 285 284 281 281 278 271 270 270 271 270 272 273 273 275 276 279 281 282 284 286 286 286 283 280 272 270 271 269 268 269 269 269 269 268 268 268 267 267 266 266 265 265 265 264 264 263 263 261 262
280 281 283 284 284 284 279 276 276 274 274 269 269 269 269 269 270 272 273 276 277 279 282 283 284 275 274 271 271 270 271 272 272 268 267 268 268 267 267 266 266 266 266 265 265 265 265 264 264 263 263 263 263 263
279 281 281 282 282 280 274 271 270 268 267 269 267 268 268 269 269 270 271 274 276 278 278 267 266 267 268 268 269 270 270 270 271 270 270 268 267 266 265 265 265 265 265 265 265 264 264 264 264 263 263 263 263 263
280 281 280 281 278 274 271 270 269 268 268 266 268 267 268 270 268 266 268 272 270 263 265 264 265 266 268 269 270 270 270 270 269 269 268 267 266 265 265 265 265 265 265 264 264 264 264 264 264 263 264 264 263 263
280 280 279 277 274 272 267 269 269 268 270 268 268 270 268 267 264 266 270 264 263 263 264 264 265 266 267 267 268 268 266 267 267 267 266 265 265 264 264 265 265 265 264 264 264 264 264 264 264 264 264 264 264 263
277 276 271 268 268 268 267 266 267 267 267 269 271 270 267 265 264 269 271 265 263 263 263 264 264 264 265 264 265 265 266 266 266 264 264 264 265 265 265 265 265 264 264 264 264 264 264 264 264 263 263 264 264 264
273 263 263 262 262 266 266 267 267 269 268 265 268 268 264 259 269 269 268 265 262 262 263 263 262 263 264 264 265 265 264 264 264 265 265 265 265 265 265 265 264 264 264 264 264 264 264 264 263 263 264 264 264 264
260 255 259 258 261 263 262 268 265 265 265 267 263 259 258 265 269 268 265 262 263 263 264 264 264 264 264 263 264 264 265 265 265 265 265 265 265 265 264 264 264 263 264 264 264 264 264 263 263 263 264 264 264 264
260 258 256 257 256 256 259 258 257 262 264 264 261 262 263 266 266 264 263 263 263 263 263 263 263 263 264 264 265 265 265 265 265 265 265 265 264 264 264 263 263 263 264 264 264 264 264 263 263 263 264 264 264 264
255 254 256 256 256 256 256 257 259 260 260 255 256 262 264 264 263 262 262 262 263 264 264 264 264 264 264 265 265 265 265 265 265 264 264 264 264 264 264 264 264 264 264 264 264 263 263 263 264 264 264 265 265 264
255 256 254 255 256 257 255 256 257 254 255 255 260 263 261 260 261 262 262 263 263 264 264 264 265 265 265 265 265 265 265 265 264 264 265 265 264 264 264 264 264 264 264 264 264 264 264 264 265 265 265 265 265 265
255 255 257 259 261 260 255 255 255 255 256 256 256 258 260 261 261 262 262 263 263 264 264 264 264 264 265 265 265 265 265 265 265 265 265 265 264 264 264 264 264 264 264 265 265 265 265 265 265 264 264 264 264 264
256 256 256 256 258 255 255 256 256 256 256 256 257 258 259 262 262 262 262 263 263 263 264 264 264 264 264 265 265 265 265 265 265 264 264 264 264 265 265 265 265 265 265 265 265 265 265 264 264 264 264 264 264 264
256 254 253 257 256 256 256 256 256 257 257 257 257 258 260 261 262 263 262 263 263 263 264 264 264 264 264 265 265 264 264 264 264 264 264 264 265 265 265 265 265 265 265 265 265 265 264 264 264 264 264 264 263 263
257 256 256 256 258 258 256 256 257 257 258 257 258 258 259 260 262 262 262 262 263 263 264 264 264 264 264 264 264 264 264 264 264 264 264 264 265 265 265 265 265 265 264 264 264 264 264 263 263 263 262 262 262 262

GFSWCAN_850_thetae_024.txt.gz
Theta_e
295 296 296 296 296 295 295 295 295 296 297 298 298 297 297 296 296 295 296 295 294 294 295 295 295 295 296 296 293 293 291 292 292 290 290 294 290 292 291 292 292 290 287 286 286 288 292 293 291 291 292 293 292 291
294 295 295 296 296 296 296 296 296 296 297 297 297 296 295 296 298 297 297 297 295 295 295 295 295 295 295 295 296 292 295 293 293 292 291 292 288 290 289 286 292 289 290 287 290 289 293 292 292 292 292 292 292 292
292 293 294 294 295 295 295 296 296 296 296 296 296 295 295 296 296 296 297 297 295 295 295 295 295 296 295 294 294 294 293 294 294 294 295 292 290 292 287 289 289 290 292 291 290 291 291 292 292 292 292 291 291 291
292 292 293 293 293 294 294 295 295 295 296 296 296 296 295 295 296 295 296 296 295 295 295 295 295 294 295 295 295 294 295 294 294 294 294 293 289 293 292 292 291 292 291 290 291 292 292 292 292 292 292 291 291 291
292 292 292 292 293 293 292 293 293 294 294 295 296 296 296 295 296 296 295 295 295 294 296 295 295 295 295 295 295 294 294 294 294 293 294 292 293 293 293 293 293 293 292 292 292 292 292 292 292 292 291 291 291 291
291 291 292 292 292 291 291 292 292 291 292 292 293 294 295 295 296 296 296 295 295 295 295 295 294 294 294 294 294 295 294 293 293 294 293 293 293 293 294 293 293 293 292 293 292 292 292 292 292 292 291 291 291 290
291 291 291 292 292 292 291 291 291 291 291 291 292 293 292 294 294 295 295 295 295 296 295 295 293 293 294 293 293 293 294 294 293 293 294 294 293 293 293 293 293 293 292 292 292 292 291 292 291 291 291 291 290 290
290 290 290 291 291 291 291 290 290 291 291 291 292 291 292 292 294 295 294 294 294 295 294 294 294 290 292 292 292 292 293 293 293 293 293 293 293 293 293 293 293 293 293 292 292 292 292 292 291 291 290 290 289 288
290 290 290 290 290 290 290 290 290 290 291 292 292 292 292 292 293 293 294 294 294 294 294 293 292 290 290 291 291 291 291 292 292 292 292 292 291 292 291 292 292 292 292 292 292 292 291 291 290 289 288 287 286 285
289 288 288 288 288 289 289 289 290 290 290 291 291 292 293 292 292 292 294 294 294 294 293 294 293 291 289 290 290 290 291 290 289 290 291 291 291 291 291 291 291 292 292 291 290 289 288 287 286 286 285 283 282 281
288 288 288 287 287 288 288 289 289 289 290 290 291 292 292 292 293 293 294 294 294 294 293 293 292 287 289 288 290 291 289 288 290 285 288 284 285 291 291 291 292 291 291 289 287 286 285 284 282 281 281 280 279 278
287 287 287 287 287 288 287 287 288 289 289 290 290 290 291 291 292 293 293 291 293 293 291 289 292 293 289 290 290 289 291 291 291 286 288 284 287 291 291 290 289 288 286 284 283 282 281 280 279 278 277 277 276 275
286 286 286 286 287 287 287 287 287 287 288 288 289 289 290 291 292 292 292 288 285 286 289 290 289 290 288 289 290 290 290 290 286 288 285 283 289 288 288 287 285 283 282 281 279 279 278 278 277 276 275 274 273 273
285 285 286 286 286 287 287 287 287 287 288 288 289 289 290 290 290 290 286 284 290 290 289 290 290 287 289 289 291 290 289 284 287 286 283 281 289 288 285 284 281 280 279 278 278 277 276 275 274 273 273 272 272 272
284 285 285 285 285 286 286 286 287 287 287 288 289 288 289 287 287 287 288 288 289 290 289 289 289 289 288 290 291 288 285 287 284 283 282 286 286 285 282 280 279 277 276 275 275 273 273 272 272 271 270 270 270 270
283 283 285 285 285 286 286 286 286 287 288 287 288 287 282 281 280 282 281 284 286 288 289 288 288 289 289 290 288 287 286 283 282 280 279 281 280 279 278 276 274 273 273 272 272 272 271 271 270 270 269 269 268 267
281 284 284 284 285 285 286 286 286 287 287 286 281 281 282 284 284 283 282 283 284 286 286 287 288 288 288 289 288 285 282 279 273 273 274 276 277 276 274 273 272 271 271 271 271 271 270 269 269 268 268 267 266 265
281 282 284 284 284 285 285 286 285 282 280 276 279 275 276 277 276 277 278 280 282 284 286 287 286 286 287 287 285 279 271 269 271 272 272 272 272 271 272 272 271 271 270 270 270 269 269 268 267 266 265 265 264 263
280 281 283 285 285 284 284 281 281 279 272 272 272 273 274 274 274 274 275 277 278 281 281 284 286 286 286 278 276 272 271 272 270 268 268 268 269 271 271 270 270 269 268 268 268 268 267 266 266 265 265 264 264 263
280 280 282 283 284 284 279 276 277 275 272 270 271 270 271 271 271 273 274 274 278 279 281 282 278 270 269 269 269 269 270 272 272 268 267 268 268 268 268 268 268 268 268 267 267 266 266 266 265 265 264 264 264 263
278 279 281 282 282 281 276 272 271 269 269 269 268 269 269 270 270 271 272 275 277 273 274 266 265 265 266 266 267 267 269 270 271 271 271 269 268 267 267 267 266 266 266 266 266 266 265 265 265 265 264 264 264 264
279 280 280 281 279 275 272 271 269 269 269 268 269 269 268 265 267 266 269 273 267 262 264 264 264 265 267 268 268 268 269 269 270 270 270 269 268 267 266 266 265 265 266 266 265 265 265 265 265 264 264 264 264 264
279 280 279 277 275 272 268 269 269 269 269 266 269 267 265 264 265 268 269 265 263 263 263 264 265 265 266 266 267 267 268 267 267 267 267 267 266 266 265 265 266 266 265 265 265 264 265 264 264 264 264 264 264 264
278 276 271 268 269 266 268 267 268 268 268 266 270 269 264 263 266 269 269 264 263 262 263 263 263 264 264 265 265 265 265 266 265 265 265 265 265 265 265 266 265 265 265 264 264 264 264 264 264 264 264 264 264 264
272 263 263 261 264 266 268 268 268 269 267 265 269 268 262 262 269 270 267 263 262 262 262 263 263 263 264 264 264 264 265 265 265 265 265 265 266 265 265 265 265 264 264 264 264 264 264 264 264 263 263 263 264 264
260 256 257 254 258 261 262 267 264 264 265 266 262 260 260 264 268 264 261 261 261 261 262 262 263 263 264 264 264 264 264 265 265 265 265 265 265 265 265 265 265 264 264 264 264 264 264 264 263 263 263 264 264 264
260 254 257 257 257 257 257 259 260 262 263 262 260 262 262 264 263 260 261 261 261 261 262 262 262 263 263 264 265 265 265 265 265 265 265 265 264 264 264 263 263 263 263 264 264 264 264 263 263 264 264 264 264 264
255 255 253 256 257 257 252 253 255 256 256 256 255 258 261 260 258 260 261 261 262 263 263 263 263 264 264 265 265 265 265 265 265 265 264 264 264 264 264 264 264 264 264 264 264 264 263 263 264 264 265 265 265 265
256 256 255 253 256 256 252 252 252 254 254 254 255 259 257 260 260 261 261 262 262 263 263 263 264 264 264 265 265 265 265 265 265 265 264 264 264 264 263 263 263 263 263 263 264 264 264 265 265 265 265 265 265 265
255 255 257 259 260 257 254 255 255 255 255 255 256 259 260 261 260 261 261 262 263 263 263 263 264 264 264 264 264 264 264 264 264 264 264 264 264 264 264 264 264 264 264 265 265 265 265 265 265 264 264 265 264 264
256 256 256 257 255 256 255 255 256 256 256 257 257 259 260 261 261 261 261 262 262 263 263 263 263 263 264 264 264 263 263 263 263 263 263 263 264 264 264 264 264 265 265 265 265 265 265 265 265 265 265 265 265 264
256 255 254 255 255 256 256 256 256 257 257 257 258 259 260 262 261 261 260 261 262 262 262 262 263 263 263 263 262 262 262 262 263 263 263 264 264 265 265 265 265 265 265 265 265 265 264 264 264 264 264 264 264 264
257 256 256 256 258 257 256 256 257 257 258 258 258 259 259 260 260 260 260 261 261 261 261 261 261 261 261 261 262 262 263 263 264 264 264 264 264 264 264 264 264 264 264 264 264 263 263 263 262 262 262 262 262 262

GFSWCAN_850_thetae_030.txt.gz
Theta_e
294 295 295 295 296 296 295 298 298 297 297 296 296 297 297 296 296 297 296 295 294 293 293 295 295 296 297 297 294 292 294 293 292 293 290 293 288 291 289 289 290 290 289 289 287 290 290 291 290 291 292 291 292 293
294 294 295 295 296 296 296 295 297 297 298 297 297 297 296 296 297 298 297 296 295 294 294 294 294 295 297 298 297 294 295 291 293 289 286 288 285 283 286 288 290 290 290 287 289 289 291 291 293 294 294 293 292 292
293 294 294 294 294 296 296 296 296 297 296 296 296 296 297 297 297 296 297 297 295 294 294 295 295 294 295 295 296 294 292 293 293 293 288 286 285 288 285 285 286 289 289 289 288 289 290 292 293 293 292 292 292 292
293 293 293 293 294 295 295 297 296 296 296 296 296 296 297 297 297 297 297 296 296 295 293 294 295 295 295 295 295 295 295 293 293 293 292 283 284 290 287 289 289 289 289 287 288 290 291 291 291 292 292 292 292 291
292 292 293 293 293 294 294 295 295 296 296 297 296 296 297 297 298 297 297 295 297 296 294 293 294 295 295 295 295 295 295 294 293 292 285 285 288 290 287 291 289 291 292 291 290 292 291 291 292 292 292 292 292 292
292 292 293 293 292 292 294 293 294 295 295 295 296 297 296 296 297 297 296 297 296 296 296 290 295 295 295 295 295 294 294 294 293 294 292 293 293 293 292 292 293 293 293 293 292 292 292 292 292 292 292 292 292 292
292 292 292 292 292 292 292 293 294 294 294 294 294 294 295 295 296 296 296 296 296 296 295 293 290 294 294 295 294 294 294 293 294 294 293 293 292 294 293 291 293 292 293 292 292 291 291 292 291 292 292 292 292 291
291 292 292 292 292 292 293 293 292 293 293 292 292 292 291 293 294 293 294 295 295 295 295 294 290 290 292 293 293 294 294 293 293 294 293 292 292 293 293 292 293 292 292 291 291 292 292 292 292 292 291 291 291 291
291 292 293 292 292 292 292 292 293 293 292 292 291 291 292 292 293 293 293 294 293 295 294 293 286 286 292 292 293 293 294 294 294 293 292 293 290 293 292 292 292 293 292 292 291 291 291 291 291 291 291 291 290 290
291 291 293 292 292 292 292 292 293 292 292 291 291 292 293 292 292 292 293 293 293 294 293 289 291 284 291 289 289 291 292 292 291 291 291 292 292 293 292 292 292 292 292 291 291 291 291 290 290 290 290 289 288 287
291 292 292 291 291 291 291 291 291 291 290 291 291 292 292 292 292 292 292 293 292 292 292 292 291 285 289 286 289 290 290 291 291 289 290 287 288 292 292 292 292 292 291 291 291 291 290 290 289 289 288 286 285 285
291 291 290 290 290 290 290 290 290 290 290 290 291 291 292 293 292 291 292 289 291 286 285 289 288 291 290 290 288 289 288 288 290 284 285 284 289 291 291 291 291 291 291 290 290 289 289 288 287 286 285 284 283 282
289 289 289 288 288 287 287 288 289 290 289 290 290 291 291 290 290 291 290 284 284 279 288 288 287 290 289 290 289 290 290 290 284 289 287 284 290 291 291 291 290 290 289 288 288 286 286 284 283 282 282 281 279 278
286 287 287 287 287 288 288 288 289 290 290 289 288 288 288 287 284 286 279 280 288 289 290 290 287 286 289 289 291 290 289 287 289 289 284 288 289 291 290 290 289 288 286 285 284 283 282 281 280 279 277 276 275 274
285 285 285 286 286 287 287 288 289 290 288 287 287 287 288 281 281 282 285 286 287 289 289 288 288 288 286 289 290 289 286 288 287 283 281 283 285 286 288 288 286 285 283 281 281 280 279 278 277 276 274 274 273 273
282 283 285 285 285 286 286 287 288 289 288 287 287 282 277 277 273 282 283 285 287 288 289 290 288 290 289 289 289 288 286 284 283 276 276 279 281 281 282 280 279 278 279 279 277 276 276 275 274 273 273 272 272 271
280 280 281 282 283 285 285 286 286 287 287 287 279 282 282 283 282 284 285 285 287 288 286 286 288 288 288 289 288 282 281 276 271 272 272 274 275 277 277 277 277 276 274 275 275 274 273 273 272 272 271 270 270 269
280 280 280 280 282 283 284 285 286 284 278 276 274 275 279 281 281 281 284 286 287 287 287 287 285 287 288 287 282 275 270 269 269 269 270 271 271 271 272 274 273 274 272 272 272 272 271 271 270 270 269 269 268 268
280 280 280 283 284 284 284 283 282 278 273 272 273 274 275 275 275 276 278 279 281 282 283 281 283 285 282 271 270 270 269 268 269 268 269 269 270 271 270 271 272 271 270 270 270 270 269 269 269 268 268 268 267 267
279 279 279 281 282 283 280 277 278 277 272 271 272 272 272 272 273 274 275 277 278 279 279 276 267 263 264 265 265 266 267 267 267 267 267 268 268 268 268 269 269 269 269 269 269 269 268 268 267 267 266 266 266 266
277 277 278 280 281 280 276 273 272 270 270 270 270 271 270 271 271 272 273 274 273 263 265 262 262 263 264 265 266 266 267 267 267 268 269 269 268 268 268 268 268 268 268 268 268 267 267 266 266 266 266 265 265 265
276 277 279 280 278 275 272 271 270 270 270 268 269 269 267 267 266 267 268 266 261 260 261 262 262 263 264 265 265 266 267 268 268 269 269 268 269 268 268 268 267 267 266 266 265 265 265 265 265 265 265 264 265 265
277 278 277 276 275 273 268 270 270 269 269 268 268 268 265 263 266 267 263 261 261 261 261 261 262 263 264 264 264 265 266 267 267 268 268 268 268 267 266 266 265 265 265 265 265 265 265 265 264 264 264 264 264 264
277 275 270 268 268 264 268 267 269 268 267 266 267 268 264 263 266 266 261 260 261 260 261 261 261 263 263 264 264 265 265 266 266 266 266 266 266 265 265 265 265 265 265 265 265 265 265 264 264 264 264 264 264 265
271 261 263 261 263 263 262 262 264 267 266 266 268 267 263 262 266 263 262 260 260 260 260 261 261 261 262 262 263 263 264 264 264 265 265 265 265 265 265 265 265 265 265 265 264 264 264 264 264 264 264 264 264 264
258 255 258 252 258 259 259 261 260 261 263 265 262 261 261 263 263 260 258 259 259 258 259 260 261 261 262 262 262 263 263 263 264 264 264 264 264 264 264 264 264 264 263 263 264 264 264 264 264 264 264 264 264 264
259 255 256 257 256 256 260 259 261 261 261 261 258 261 265 263 260 259 259 259 258 259 260 260 261 261 262 262 263 263 263 264 264 264 264 264 263 263 263 263 263 263 263 263 263 264 264 264 264 264 264 264 264 264
254 254 255 256 256 256 251 253 256 256 257 255 257 259 260 259 257 258 259 259 259 260 261 261 262 262 262 263 263 263 263 264 263 263 264 264 263 263 263 263 263 263 263 263 263 263 263 263 263 263 264 264 265 264
256 256 255 255 255 254 251 251 252 252 253 253 258 259 258 257 256 257 259 260 260 261 261 261 262 262 262 263 263 263 263 264 264 264 264 263 263 263 263 263 263 263 263 263 263 264 264 264 264 264 265 265 265 265
255 255 257 257 256 254 253 253 254 254 254 255 257 258 258 257 257 258 259 260 260 260 261 261 261 262 261 261 261 262 262 262 262 262 262 262 263 263 263 263 264 264 264 264 264 264 264 264 264 264 264 264 264 264
256 256 256 256 254 255 255 255 256 257 258 258 259 259 258 259 258 259 259 259 259 259 260 260 260 260 260 260 261 261 262 262 262 262 262 262 263 263 263 264 264 264 264 264 264 264 264 264 264 264 264 264 264 263
256 255 255 256 254 256 256 256 257 258 259 259 258 259 259 260 259 258 258 259 259 259 259 259 260 260 259 259 259 259 260 260 261 261 262 262 262 262 262 262 262 262 262 262 262 262 262 261 262 261 261 261 261 261
256 256 256 256 256 256 256 256 257 258 259 258 259 259 259 259 258 259 258 258 258 257 257 258 258 258 258 258 258 259 259 259 260 260 260 260 259 259 260 259 259 259 259 259 259 259 259 258 258 258 258 258 258 258

GFSWCAN_850_thetae_033.txt.gz
Theta_e
293 294 294 295 296 296 296 297 297 298 297 296 296 296 298 297 298 298 296 295 295 294 294 295 296 297 297 299 297 293 296 294 294 298 297 294 292 291 289 290 291 291 291 290 289 291 292 290 290 292 292 292 293 292
292 293 294 295 295 296 295 296 296 297 298 297 296 296 297 297 297 297 297 296 295 294 293 294 294 295 298 299 299 295 297 293 295 293 290 291 288 285 286 288 290 292 291 290 291 291 291 291 293 294 294 294 293 292
290 292 293 294 294 295 295 296 297 296 297 298 297 297 297 297 297 297 297 296 295 294 294 294 294 293 295 297 298 296 293 295 294 294 289 288 288 289 285 285 287 289 288 289 289 289 289 292 293 293 294 293 294 293
289 291 292 293 294 294 295 295 296 296 296 297 298 297 297 297 297 297 297 297 296 295 291 294 295 295 294 295 295 296 296 295 294 293 289 286 286 290 288 290 289 290 288 288 288 290 290 291 292 293 293 293 292 292
289 290 292 293 293 293 294 294 295 296 296 296 297 296 296 296 297 297 297 297 296 296 291 294 294 295 295 295 295 295 295 294 292 291 285 286 288 289 286 290 289 289 291 290 288 292 292 292 293 292 292 292 292 292
289 290 291 292 293 293 293 294 295 295 296 296 296 296 296 296 296 298 297 297 296 296 295 291 295 295 295 295 295 295 294 294 293 293 289 291 292 293 286 284 293 294 293 293 292 294 293 293 292 292 292 292 292 292
289 290 291 293 293 293 293 294 294 294 295 295 296 296 297 296 297 297 296 295 297 295 296 293 289 294 295 294 294 294 293 293 294 294 293 292 292 294 292 287 293 293 293 293 293 293 292 293 292 292 291 291 291 292
290 291 290 293 292 294 293 292 293 293 294 294 293 294 295 295 296 295 295 295 296 295 295 294 288 290 292 293 292 293 293 293 293 294 292 290 292 293 292 292 293 293 293 293 293 293 293 293 291 291 291 291 291 291
289 291 291 293 292 293 293 292 292 292 294 294 294 293 294 294 293 295 294 294 295 295 293 291 287 287 291 292 293 293 294 293 293 293 292 293 291 292 292 292 293 293 293 293 293 292 291 291 292 291 291 291 291 291
289 289 291 292 292 293 293 292 293 293 293 293 292 292 292 292 292 292 293 294 293 293 293 288 288 282 290 289 289 291 293 290 292 292 292 293 293 293 293 293 293 293 293 293 291 291 291 291 291 291 291 290 290 290
290 289 290 291 291 294 292 292 292 292 294 294 291 291 292 291 292 292 292 291 292 292 292 291 290 286 290 287 286 291 290 290 291 286 292 291 287 293 293 293 293 293 293 293 292 292 291 291 291 290 290 289 288 288
291 291 291 291 292 293 292 292 292 293 292 291 291 292 292 292 292 291 292 288 290 286 284 287 287 292 290 290 286 289 289 289 291 283 288 285 289 292 292 292 292 293 292 292 292 291 290 290 289 289 288 287 286 285
290 291 291 291 291 291 291 291 292 291 291 290 291 291 291 290 291 289 291 287 285 279 285 287 285 290 288 289 288 288 288 287 283 289 289 285 290 291 292 291 291 291 291 291 290 289 288 287 286 285 285 284 283 282
288 289 289 289 288 288 288 290 290 290 290 290 289 289 289 288 287 287 278 279 286 288 288 289 286 287 289 288 290 289 289 286 288 289 285 286 287 289 289 290 290 290 289 287 286 285 285 284 283 282 281 280 279 278
286 286 286 287 287 287 288 288 290 289 289 288 288 288 286 280 279 281 283 285 285 287 289 288 288 289 286 290 291 289 287 288 287 283 279 275 278 282 285 286 286 286 284 283 282 282 281 280 279 279 277 276 276 275
284 285 285 285 286 286 287 288 289 289 288 287 286 283 275 277 274 281 283 286 287 287 289 290 287 290 289 288 288 289 287 284 282 272 270 272 275 277 279 280 280 280 280 280 279 278 278 277 275 274 274 274 274 273
280 280 281 283 285 285 286 287 287 287 286 285 280 280 279 282 282 283 285 285 287 289 283 286 289 289 289 288 288 286 284 274 268 270 270 271 272 274 274 274 275 275 275 275 276 275 274 273 273 273 273 272 272 271
280 280 280 280 280 283 284 285 285 282 278 275 275 274 277 277 278 281 283 285 287 287 287 287 286 287 287 286 282 274 271 269 268 269 270 269 270 272 273 273 273 273 273 272 271 271 271 271 271 271 270 270 270 269
280 280 280 280 282 283 283 282 282 277 272 272 272 273 275 276 276 277 279 281 282 283 285 283 284 284 275 268 266 267 267 266 267 268 269 268 269 269 270 270 271 271 272 272 271 270 270 270 270 269 269 269 269 268
279 279 279 280 282 283 280 277 278 277 273 271 272 272 272 272 273 274 277 278 279 279 272 270 264 262 262 263 263 264 265 265 266 267 269 269 270 269 269 269 269 269 269 269 269 269 269 269 268 268 268 268 267 267
278 277 277 279 280 279 275 273 271 270 271 270 270 271 270 271 271 272 272 273 270 261 264 261 261 262 262 263 263 264 265 266 266 266 267 268 268 268 268 268 267 268 268 268 268 268 268 267 267 267 267 266 266 266
276 276 278 279 277 274 272 271 270 270 270 268 269 269 267 266 266 266 267 264 261 259 259 260 260 261 263 263 264 264 265 265 266 267 268 267 267 267 267 267 267 267 267 267 267 266 266 266 266 266 266 265 265 265
276 277 277 275 274 272 268 270 270 269 268 267 268 268 265 265 265 266 262 260 260 259 259 260 261 261 263 263 263 264 265 266 266 266 266 266 266 266 266 266 266 266 266 266 266 266 265 265 265 265 265 264 264 265
276 274 269 267 268 266 268 267 269 268 268 267 268 267 263 262 265 264 260 260 260 259 260 260 261 262 262 262 263 264 264 265 265 265 265 265 265 265 265 265 265 265 265 265 265 265 265 264 264 264 264 264 264 264
271 261 262 261 262 264 264 264 264 267 265 264 267 265 261 263 265 262 261 259 259 259 259 260 261 261 261 262 262 263 263 264 264 264 264 264 264 264 264 265 264 264 264 264 264 264 264 264 264 264 264 264 264 264
257 255 258 256 259 261 260 263 262 260 262 264 263 262 263 265 263 259 257 258 258 258 259 260 260 261 261 262 262 263 263 263 264 264 264 264 264 264 264 264 264 264 264 263 264 264 264 264 264 263 264 264 264 264
257 255 256 257 256 257 260 260 261 259 259 259 257 262 265 262 260 258 258 258 258 259 260 260 260 261 261 262 262 263 263 263 263 263 263 263 263 263 263 263 263 263 263 263 263 263 263 263 263 263 263 264 263 263
254 254 256 256 256 255 256 257 256 255 256 254 257 258 258 258 256 257 258 258 259 260 260 261 261 261 261 262 262 263 263 264 264 263 263 263 263 263 263 262 262 263 263 263 263 263 263 263 263 263 263 263 264 264
255 256 255 256 255 253 251 252 252 252 252 252 257 258 257 256 256 257 258 259 259 260 261 261 261 260 260 261 261 262 262 263 263 263 262 262 262 262 262 262 263 263 263 263 263 263 263 263 263 263 264 264 264 264
255 254 256 255 254 253 252 253 254 254 254 255 257 257 257 257 257 258 258 259 259 259 259 259 259 260 260 260 260 260 261 261 261 261 261 261 261 262 262 263 263 263 263 263 263 263 263 263 263 263 263 263 263 263
256 256 256 256 255 255 255 256 257 258 258 258 258 258 258 258 257 257 258 258 258 259 259 259 259 259 259 259 259 260 261 261 260 260 260 260 261 261 261 262 262 261 262 262 262 262 262 262 262 262 262 262 262 261
256 255 255 255 255 256 256 257 258 259 259 259 259 259 259 259 258 256 257 257 258 258 257 257 258 258 257 257 258 258 258 258 259 259 259 260 260 260 260 260 260 260 260 260 260 260 260 260 260 260 260 260 260 259
256 256 256 256 256 255 256 256 257 258 258 259 259 259 259 258 258 257 257 256 256 256 256 256 256 256 256 256 257 257 257 257 257 257 257 257 257 257 257 257 256 257 257 257 257 257 257 257 257 257 257 257 257 257

GFSWCAN_850_thetae_036.txt.gz
Theta_e
291 292 292 293 294 295 296 296 297 297 298 297 297 297 298 299 298 298 297 296 296 296 295 298 299 299 299 299 299 294 296 295 296 300 302 298 299 294 294 292 293 296 298 296 296 298 300 290 290 293 293 292 294 294
290 291 291 292 292 294 295 295 296 296 297 298 297 296 296 296 298 299 298 296 295 294 294 294 295 297 299 301 300 295 299 294 297 298 296 293 293 290 293 295 290 294 294 294 296 296 290 291 293 294 294 294 293 293
290 290 290 291 292 293 294 295 296 296 296 297 298 297 296 297 298 298 298 297 294 294 294 294 294 294 295 297 299 298 295 296 297 297 292 292 294 290 289 289 289 289 288 291 291 290 290 291 293 294 294 294 294 293
289 290 290 290 291 292 293 295 296 296 296 296 296 298 297 297 297 298 297 296 296 294 290 293 294 294 294 295 296 297 298 297 295 293 290 289 290 290 289 291 291 291 289 288 289 289 290 292 293 293 293 293 292 292
289 289 290 290 290 291 293 294 295 295 295 296 296 298 297 297 297 298 298 297 297 296 292 294 294 295 295 294 294 295 295 296 293 291 288 288 289 289 287 289 288 289 289 290 290 291 292 293 294 294 293 292 291 291
290 290 290 290 290 291 292 294 294 294 295 296 296 296 297 298 297 297 297 297 297 296 295 289 294 294 295 295 294 294 294 294 293 293 288 290 291 291 285 284 290 292 292 293 292 293 293 294 293 293 293 292 292 292
289 289 289 289 290 291 292 293 293 293 294 295 296 296 296 297 297 296 297 297 297 296 295 288 286 293 294 294 294 292 292 293 293 293 290 292 292 292 285 288 293 293 293 293 294 293 292 293 293 293 293 293 291 291
289 289 289 289 290 291 292 293 294 293 295 295 295 297 297 296 297 296 295 296 296 296 295 294 284 290 291 292 291 292 292 293 293 293 291 289 292 293 289 292 293 294 293 293 293 293 293 293 293 293 292 292 291 291
289 289 290 290 291 291 292 293 293 293 295 294 296 295 295 295 294 294 296 296 295 296 294 293 289 289 291 292 292 293 293 292 293 291 291 293 291 291 292 292 293 294 293 294 294 293 293 292 292 292 292 291 291 291
288 288 289 290 291 291 293 293 293 293 293 294 295 294 292 293 293 294 293 294 293 293 293 291 286 284 291 290 289 290 293 290 293 291 292 293 289 293 293 293 293 293 293 293 292 292 291 291 292 292 292 292 291 291
287 286 288 289 290 292 292 294 293 292 292 295 292 291 292 293 292 292 293 291 292 292 293 290 289 286 289 285 285 291 291 291 291 287 289 287 285 293 293 293 293 293 293 293 293 293 293 292 292 291 291 291 290 290
290 290 290 289 291 292 292 294 293 293 294 294 292 291 292 291 292 291 291 290 288 288 285 288 287 290 289 291 289 290 290 289 286 283 287 283 288 292 292 293 293 293 293 293 292 292 292 291 290 290 290 289 289 288
291 291 292 292 291 291 292 293 293 293 292 291 291 291 291 291 290 291 291 284 287 278 287 287 285 289 288 289 287 287 289 289 284 289 290 285 290 287 287 289 290 291 291 291 291 290 289 289 288 288 287 287 286 284
288 289 289 290 292 292 294 294 293 291 291 290 289 289 287 288 287 288 278 277 283 285 285 287 285 285 288 284 287 286 285 283 286 288 284 277 272 278 281 282 285 287 288 287 287 287 286 286 285 285 284 283 282 281
286 287 287 287 288 289 292 291 291 291 289 288 288 288 282 277 278 280 281 284 286 286 288 286 286 288 284 289 290 287 287 288 283 282 275 270 272 274 278 281 281 283 283 284 283 282 282 281 281 281 279 279 278 276
284 285 285 286 287 287 288 289 290 289 289 288 286 281 274 276 273 279 281 285 286 287 289 290 284 289 289 288 289 289 288 285 280 268 270 269 270 272 275 276 277 278 278 279 279 279 278 277 277 276 275 274 274 274
281 281 281 283 285 286 286 287 287 287 285 283 276 278 277 279 280 281 283 284 287 289 287 288 289 288 287 288 288 284 284 277 269 269 267 268 269 270 271 273 274 274 275 275 276 275 275 274 274 273 272 272 271 271
280 280 280 280 281 284 285 286 285 282 275 274 275 273 275 274 276 279 280 284 286 286 287 287 286 286 287 287 283 271 269 268 268 268 269 269 269 269 270 269 270 271 271 271 271 272 272 271 271 272 272 272 271 270
280 280 280 280 280 281 283 282 282 276 272 272 272 273 274 274 274 276 279 281 283 284 285 284 284 281 272 267 265 265 265 264 264 266 267 267 268 268 268 268 268 269 269 270 270 271 271 271 271 270 269 269 268 268
279 278 278 280 282 283 280 277 278 277 273 271 272 272 272 272 273 274 278 279 279 275 266 266 262 261 261 262 262 263 263 264 265 266 266 267 267 268 269 268 268 268 269 269 269 269 269 269 269 269 268 267 267 267
278 278 277 279 281 279 274 272 272 271 271 270 270 271 270 271 270 270 270 271 266 260 262 260 260 260 261 262 262 263 263 264 264 264 264 265 267 267 267 268 267 268 268 268 268 268 268 267 267 266 266 265 265 265
276 276 277 279 277 275 272 271 270 270 271 268 269 269 267 266 265 265 265 262 260 259 259 259 260 261 262 262 263 263 264 264 265 265 265 265 265 266 266 267 266 267 267 267 266 266 266 265 265 265 265 265 265 265
276 277 276 275 274 272 268 270 270 270 269 267 269 269 266 266 265 266 261 260 259 258 258 259 260 261 262 262 263 263 264 264 265 265 265 265 266 266 266 266 266 266 265 265 265 265 265 265 265 265 264 264 264 265
276 273 268 266 267 265 268 267 269 268 268 266 267 266 263 263 265 262 259 259 259 258 259 260 261 262 261 262 262 263 263 264 264 264 265 265 265 265 265 265 265 265 265 265 265 264 264 264 264 264 264 264 264 264
270 260 261 260 262 262 262 263 264 265 265 264 265 264 262 263 263 260 260 258 258 258 258 259 260 260 260 260 261 262 262 263 263 264 264 264 264 264 264 264 264 264 264 264 264 264 264 264 264 264 264 264 264 264
256 255 257 255 257 259 260 263 261 260 262 262 260 261 264 263 260 258 257 257 257 257 258 259 260 260 260 261 262 262 262 263 263 263 263 263 263 263 263 264 263 263 263 263 263 263 263 263 263 263 263 263 264 264
256 255 256 257 256 257 260 260 260 259 257 257 255 261 263 261 258 257 257 257 257 258 259 259 260 260 261 261 262 262 263 263 263 263 263 262 262 262 262 263 263 262 263 263 263 263 263 263 263 263 263 264 263 263
254 254 255 255 255 255 256 256 255 254 255 253 256 257 257 257 255 256 257 257 258 259 259 260 260 259 260 260 261 262 262 262 262 262 262 261 261 262 261 261 262 262 262 262 262 263 263 263 263 263 263 263 263 263
255 255 255 256 255 253 250 252 252 251 251 252 257 257 256 256 256 256 257 257 258 259 259 259 259 259 259 260 260 261 261 261 262 262 261 261 261 261 261 262 262 262 262 262 262 262 262 262 261 262 263 263 263 263
254 254 256 255 253 253 253 253 254 254 254 255 256 256 256 256 256 257 257 258 258 258 258 258 259 259 259 260 260 260 260 260 260 260 260 260 260 260 261 261 261 261 261 262 262 262 262 262 261 261 261 261 261 261
255 256 256 255 254 255 255 256 257 257 257 257 257 257 257 256 256 257 257 257 258 258 259 259 258 258 258 258 258 259 260 259 259 259 258 258 258 259 259 259 259 260 260 260 260 260 260 260 260 259 260 260 260 259
257 255 255 253 255 256 257 258 259 259 259 259 259 259 258 258 257 256 256 257 257 258 257 257 257 257 256 256 256 256 256 256 256 257 257 257 257 257 257 257 256 256 257 256 257 256 256 256 257 257 257 257 257 257
257 257 256 256 256 256 256 256 257 258 258 259 259 259 258 258 257 256 256 256 256 256 255 255 254 255 255 255 255 255 255 255 255 255 255 255 254 254 254 254 254 254 254 254 254 254 254 254 254 254 255 255 255 255

GFSWCAN_850_thetae_042.txt.gz
Theta_e
290 290 290 290 291 291 292 293 293 294 295 296 297 298 298 298 300 300 298 298 299 299 300 301 301 301 300 301 302 297 300 298 299 305 306 304 304 302 303 299 302 305 307 307 306 309 310 294 292 301 301 295 298 297
289 289 290 290 290 291 291 292 293 293 294 295 296 297 298 297 299 300 298 297 297 298 297 299 299 300 301 301 299 297 300 297 301 304 302 299 299 297 301 305 293 305 305 306 307 307 293 293 295 296 296 297 296 296
289 289 290 290 290 291 291 291 293 293 293 294 295 296 298 298 298 299 299 297 295 295 295 294 296 298 299 301 301 299 297 298 299 299 297 298 300 297 302 301 296 294 292 297 301 294 292 292 295 295 296 297 295 295
288 289 289 289 290 290 291 291 291 292 293 292 295 295 297 298 298 298 298 297 297 296 295 294 294 294 295 297 299 301 300 299 299 297 297 298 300 294 298 296 298 295 293 293 292 291 291 292 293 295 294 294 294 294
288 288 289 289 290 290 290 291 291 291 292 293 293 295 296 297 298 299 298 297 297 297 295 293 293 294 294 294 295 297 299 300 297 296 296 297 293 293 291 291 294 291 292 294 296 293 295 295 297 295 294 294 293 293
288 289 289 289 289 290 290 290 291 291 291 292 292 294 295 297 296 298 297 297 297 297 295 295 292 292 294 294 294 295 296 296 294 295 293 291 291 294 296 296 293 292 293 294 293 294 294 294 295 295 295 294 293 293
288 288 288 289 290 290 290 291 291 291 291 292 293 294 295 297 297 297 297 297 297 297 296 294 292 290 292 293 292 292 293 294 294 292 292 292 291 292 292 295 291 292 293 293 294 294 292 293 294 294 294 294 293 293
287 288 288 288 289 289 289 290 291 291 291 292 292 293 296 297 297 297 297 297 297 296 296 291 290 290 292 292 292 291 292 292 292 291 291 292 292 292 294 291 292 293 293 293 293 293 294 294 293 293 293 293 292 292
287 287 288 288 288 288 289 290 291 291 291 292 292 296 295 297 296 296 297 296 296 296 296 291 291 293 291 291 292 292 292 293 291 292 293 292 292 293 293 292 292 292 293 294 293 293 293 293 293 293 293 292 292 292
286 287 287 288 288 288 289 289 290 291 291 292 293 295 295 295 295 296 295 295 296 295 294 292 287 291 292 292 291 292 291 293 293 292 291 294 293 292 292 292 292 292 293 293 293 292 293 293 293 293 293 292 292 292
287 287 288 288 290 289 288 289 289 290 291 294 293 293 294 295 295 295 294 295 293 293 292 286 287 290 289 292 292 290 292 293 293 292 293 292 293 288 284 287 287 288 290 290 290 291 292 292 292 292 292 292 292 291
287 287 288 291 291 289 287 289 289 290 293 294 293 292 294 293 291 292 293 292 293 293 286 286 286 289 289 291 293 291 292 291 292 288 293 291 289 275 277 281 283 284 286 287 289 290 290 290 290 290 290 290 290 290
286 287 288 291 290 287 289 290 290 292 293 293 293 292 291 291 291 292 291 289 291 285 285 286 289 288 289 291 291 292 292 292 286 291 291 289 274 273 274 278 281 280 282 283 285 286 287 288 289 289 289 288 288 288
285 286 287 288 291 289 289 292 292 292 292 291 290 290 291 290 291 290 288 288 285 286 288 289 287 290 288 290 290 291 287 288 291 291 289 276 269 270 272 274 277 279 280 282 282 283 284 285 286 286 286 285 285 285
283 285 286 287 288 292 291 291 292 292 290 289 289 289 288 277 275 275 278 282 283 286 289 288 288 289 288 291 290 287 287 289 289 288 277 269 269 270 272 273 274 276 277 278 279 279 280 281 281 282 282 281 280 280
281 282 284 284 287 289 290 292 292 289 287 284 279 282 275 283 280 278 279 280 285 289 289 289 288 290 290 290 289 289 288 288 283 273 268 268 269 269 271 273 273 274 275 275 276 277 277 278 278 278 278 277 277 276
281 281 281 282 285 287 289 290 287 283 279 278 275 273 274 277 276 275 278 280 285 288 287 284 284 287 289 289 284 276 282 273 269 267 267 267 268 269 270 271 271 272 273 274 274 274 274 274 274 274 275 274 273 272
280 280 280 281 283 286 286 285 283 277 273 272 274 270 271 270 273 275 277 281 286 285 284 283 285 284 281 281 276 269 266 265 265 265 265 266 268 269 269 268 269 270 270 271 271 271 271 270 270 270 270 270 270 270
279 280 281 280 282 283 283 281 279 272 270 271 272 272 272 271 271 272 276 278 280 281 281 274 267 267 265 263 264 263 262 262 263 264 265 266 266 267 267 267 267 267 268 268 268 269 269 269 270 270 270 270 270 270
278 279 279 280 281 281 279 275 275 274 271 270 272 271 270 269 270 270 274 274 271 266 260 261 259 259 259 259 260 260 261 262 264 265 265 265 265 266 267 267 267 267 268 268 268 268 268 268 268 269 269 269 268 268
277 278 279 280 281 279 273 271 270 270 271 270 270 271 270 269 266 265 264 264 261 259 260 258 258 258 259 260 260 261 262 263 263 263 263 264 264 265 265 265 266 266 266 267 267 267 267 267 267 267 267 267 267 267
277 278 279 279 277 274 271 270 270 270 271 269 269 268 266 266 264 262 262 259 258 257 257 257 258 259 260 260 261 262 262 263 263 263 263 263 264 264 264 265 265 265 265 265 265 265 266 266 266 266 266 266 265 265
277 277 275 274 274 272 268 270 269 269 270 269 268 267 266 264 264 263 260 258 257 257 257 258 259 259 259 260 261 261 262 263 263 263 264 264 264 264 264 264 264 264 264 265 265 265 265 265 265 265 265 265 265 265
274 270 266 264 264 264 268 266 268 267 267 266 266 265 262 262 263 260 258 258 257 257 258 259 260 260 260 261 261 261 261 262 262 263 263 263 263 263 263 263 263 263 264 264 264 264 264 264 264 264 264 264 264 264
267 258 260 257 260 261 263 263 262 262 263 262 263 263 262 263 261 259 258 257 257 257 257 258 259 260 260 260 260 260 261 262 262 262 262 262 262 262 262 262 262 262 262 262 262 262 263 263 263 263 263 263 263 263
254 255 256 255 256 258 259 261 259 259 261 260 259 260 261 260 258 256 256 256 256 256 257 258 258 259 259 260 261 262 261 261 261 262 261 261 261 261 261 261 261 261 262 262 262 262 262 262 262 262 262 262 262 262
255 253 256 256 255 256 257 257 257 255 254 255 255 258 259 256 254 255 256 256 256 257 257 257 258 259 259 259 260 260 261 261 261 261 260 260 260 260 261 261 261 260 261 261 261 261 261 261 261 261 262 262 261 261
254 253 254 255 254 253 254 254 253 252 253 252 255 255 253 253 253 255 255 256 257 257 258 258 258 258 259 259 260 260 260 260 260 260 259 259 260 260 259 259 259 259 259 260 260 260 260 259 259 260 261 261 261 261
255 254 255 254 254 253 251 252 252 251 252 252 255 255 255 254 255 255 256 256 257 258 258 258 259 259 259 259 259 260 260 260 260 260 260 260 260 259 259 259 259 259 259 260 259 259 259 258 257 258 259 259 259 260
254 254 255 254 253 253 253 253 254 254 255 255 255 254 254 254 255 256 256 257 258 258 258 257 258 258 259 259 259 258 258 258 258 257 257 258 257 257 257 257 257 257 257 257 257 257 257 256 257 257 257 257 257 257
256 258 256 255 254 255 256 256 256 256 256 255 255 255 255 255 256 256 256 256 257 257 257 257 257 257 258 257 257 257 257 256 255 255 255 255 255 255 255 255 255 255 255 255 255 255 255 255 255 255 255 255 255 255
257 255 256 255 256 257 257 258 258 258 258 258 258 257 257 257 256 256 256 256 257 257 256 256 256 256 256 256 255 256 255 255 255 255 255 255 255 255 255 255 254 254 254 254 254 254 254 254 254 254 254 254 254 254
257 257 256 256 256 256 256 257 258 259 258 258 257 257 257 257 256 256 256 256 256 256 255 255 256 256 256 255 256 255 255 255 255 254 254 254 254 254 254 253 254 254 254 254 254 254 254 253 253 253 253 253 253 253

GFSWCAN_850_thetae_045.txt.gz
Theta_e
290 290 290 290 291 291 291 291 292 293 294 293 295 296 297 298 298 300 299 299 299 299 301 302 302 301 301 301 302 299 301 299 300 306 310 308 311 307 308 306 305 308 309 310 311 312 314 297 295 306 304 297 302 304
290 290 290 290 290 291 291 291 291 292 293 293 293 295 297 298 298 300 299 298 299 298 298 299 301 301 301 301 301 298 300 300 302 305 305 304 304 302 307 310 298 308 309 311 311 310 295 296 296 299 302 303 302 301
289 289 289 290 290 290 290 291 291 291 292 293 293 293 295 297 299 299 298 298 297 296 296 295 296 300 300 300 300 300 299 299 300 299 302 302 304 302 305 305 301 298 296 304 304 297 296 294 298 301 302 299 298 298
288 288 289 289 289 290 290 290 291 291 291 292 293 293 294 295 298 298 298 298 297 296 299 297 294 294 298 299 299 300 300 300 299 299 300 301 303 296 302 299 301 297 296 298 295 292 293 295 298 299 301 301 297 295
287 288 289 289 289 289 289 290 290 291 291 292 293 292 293 295 296 298 297 297 298 297 299 296 293 294 294 295 297 298 300 299 298 298 299 300 295 295 293 294 298 293 295 297 300 294 298 297 300 300 300 296 295 294
287 288 287 288 289 289 289 289 290 290 291 291 292 293 293 293 295 298 296 297 298 297 296 297 292 292 293 293 294 296 298 298 296 297 296 293 292 296 300 301 295 294 294 295 295 297 298 298 298 299 297 294 293 293
287 287 287 288 288 289 289 289 290 290 290 291 291 292 293 292 295 297 297 297 297 296 296 295 295 291 292 292 292 293 293 294 295 293 295 293 292 296 296 298 294 293 294 293 295 296 293 293 294 294 294 295 294 293
287 287 287 288 288 288 289 289 290 289 291 291 291 291 293 293 294 294 297 297 297 296 296 297 292 292 292 293 293 292 293 293 293 294 292 294 293 294 296 294 293 294 293 292 293 293 293 293 293 294 293 293 293 293
286 287 287 287 287 288 289 289 289 289 290 291 291 291 293 293 295 295 297 297 296 296 297 295 294 294 292 293 292 293 293 295 292 295 294 294 294 296 294 292 292 291 292 292 293 293 293 293 293 293 293 293 293 293
286 286 287 287 287 288 288 289 288 289 290 291 291 292 293 294 294 296 296 296 295 296 295 296 293 293 293 293 294 294 294 295 294 294 292 295 295 287 283 286 289 290 290 291 292 292 292 292 293 293 293 293 293 292
286 286 287 287 288 289 288 288 289 289 291 292 292 293 294 295 296 296 294 296 296 296 294 290 293 292 292 295 294 293 295 294 295 295 295 295 295 284 276 279 283 286 287 288 289 290 291 291 291 292 292 292 292 292
287 286 287 287 289 291 291 291 290 290 291 291 292 293 293 294 293 294 296 294 295 294 288 292 292 292 290 293 294 292 295 294 295 292 295 295 288 273 274 276 278 281 283 285 286 288 289 290 290 290 291 291 291 291
285 285 286 287 290 291 291 291 289 289 290 291 293 293 292 292 293 293 293 292 292 290 289 290 292 290 290 292 294 294 293 294 291 294 294 291 276 272 272 274 276 277 279 280 282 284 286 287 288 288 288 288 288 289
282 284 285 287 289 290 290 289 290 291 290 292 292 292 293 292 293 293 294 294 290 290 290 292 291 293 291 293 293 294 290 290 293 293 293 280 271 270 271 272 274 276 278 279 280 281 282 283 284 284 285 285 285 285
282 283 284 286 288 290 290 290 291 290 290 290 291 291 291 281 278 277 280 285 286 290 292 291 291 291 292 292 291 289 289 291 292 292 281 272 268 269 270 272 273 274 276 277 278 278 278 280 280 281 282 282 282 281
281 281 283 284 286 290 291 291 291 289 286 282 279 284 280 285 282 282 284 284 288 290 291 291 292 293 292 292 291 291 292 291 285 274 269 267 268 269 269 271 272 273 275 275 276 276 277 277 278 278 278 277 277 277
281 280 280 282 285 287 290 291 288 282 278 279 276 272 274 279 279 277 279 280 285 290 290 290 291 291 291 290 285 276 279 273 271 267 265 266 267 268 269 270 270 271 272 273 273 274 274 274 274 274 274 274 273 273
280 280 280 281 284 286 286 283 281 277 274 273 276 272 271 270 274 272 273 278 285 286 287 286 285 281 279 283 276 269 267 267 265 265 264 265 266 267 268 268 269 270 270 270 270 271 271 271 271 271 271 271 271 271
279 280 280 281 282 284 282 279 278 274 272 272 272 272 271 269 267 268 271 273 277 278 275 271 268 268 266 264 265 264 263 263 263 263 264 265 266 267 268 268 269 269 268 268 268 269 269 269 269 269 269 269 270 270
278 279 280 280 281 282 277 274 275 274 273 271 271 271 270 268 267 267 269 270 267 264 261 262 260 260 260 260 259 260 260 261 262 264 264 264 266 266 267 267 267 267 267 267 267 267 267 268 268 268 268 268 268 268
278 278 280 281 280 278 272 270 270 271 271 271 270 271 270 267 265 264 263 262 260 259 260 258 258 257 258 259 260 260 261 262 262 263 262 262 264 265 265 265 265 266 266 266 266 266 267 267 267 267 267 267 267 267
277 279 279 278 276 274 271 270 270 271 271 270 270 268 268 267 264 262 262 260 258 257 257 256 257 258 259 260 260 261 262 263 263 263 264 264 263 264 264 264 265 265 265 265 265 265 265 265 265 265 265 265 265 265
277 276 274 273 273 271 269 270 270 269 273 271 269 268 266 265 263 262 260 259 258 257 257 258 259 259 259 260 261 261 262 262 263 263 263 263 263 263 264 264 264 264 264 264 264 264 264 264 264 264 264 264 264 264
273 269 264 262 263 265 267 267 267 268 268 268 267 266 264 264 263 261 259 258 257 257 258 259 259 259 259 260 261 261 261 262 262 262 262 262 262 262 262 263 263 263 263 263 263 263 263 263 263 263 263 263 263 263
266 257 259 257 259 262 264 264 263 266 265 265 266 265 263 263 261 260 259 258 257 256 257 258 258 259 259 259 260 260 261 261 262 262 262 262 262 261 262 262 262 262 262 262 262 262 262 262 262 262 262 262 263 263
255 255 257 256 257 259 260 261 260 260 262 262 261 262 261 261 259 257 257 256 256 256 257 257 258 258 259 259 260 261 261 261 261 262 261 261 261 261 261 261 261 261 261 261 261 262 261 261 261 262 262 262 262 262
255 255 256 255 254 256 257 257 256 257 256 257 257 260 260 257 257 256 256 255 255 256 257 257 258 258 259 259 259 260 260 260 260 260 260 260 260 260 260 260 260 260 260 260 260 260 260 260 260 260 261 261 260 260
254 253 254 255 254 253 254 254 253 253 253 253 256 255 255 255 256 255 255 256 256 257 257 258 258 259 259 259 260 259 259 260 259 259 259 259 259 259 259 259 259 259 259 259 259 259 259 259 258 257 258 260 260 259
255 253 254 254 255 254 252 253 254 252 251 252 256 255 254 254 254 255 256 256 257 257 258 258 258 258 258 258 259 259 259 259 259 259 259 259 259 258 258 258 258 258 258 258 258 257 257 256 255 255 256 256 257 257
254 254 255 254 254 254 254 253 254 254 254 254 254 254 254 254 255 255 256 256 257 257 257 257 257 258 258 258 258 258 258 258 258 257 257 257 257 257 257 257 257 256 256 256 256 256 256 256 256 256 256 255 255 255
257 258 256 255 255 255 255 256 256 255 255 255 255 254 254 254 255 256 256 257 257 257 257 257 257 257 257 257 257 257 257 256 256 256 256 256 256 256 256 255 255 255 255 255 255 255 254 254 254 254 254 254 254 254
257 255 256 255 256 256 257 258 258 258 258 258 257 257 256 256 256 256 256 257 257 257 256 256 256 256 256 256 256 256 256 256 256 256 256 256 255 255 255 255 255 255 254 254 254 254 254 254 254 254 254 253 253 253
257 257 256 256 255 256 256 256 258 258 258 257 257 257 256 256 257 257 256 256 256 256 256 256 256 256 256 256 256 256 256 256 256 256 255 255 255 255 255 254 255 254 254 254 254 254 254 254 254 254 253 253 253 253

GFSWCAN_850_thetae_048.txt.gz
Theta_e
290 290 291 291 291 291 291 291 291 292 292 293 294 294 294 293 297 299 299 300 300 299 300 301 301 303 303 304 308 300 302 301 300 306 310 310 312 307 309 306 304 307 308 308 310 313 315 298 298 307 302 298 304 305
290 290 290 290 291 291 291 291 291 291 292 292 293 294 294 295 295 299 298 300 299 299 299 299 299 300 302 304 303 300 301 300 303 305 304 305 304 303 307 308 300 309 307 310 309 310 295 296 296 298 300 300 303 304
289 289 290 290 290 290 290 291 291 291 291 291 292 293 294 294 294 296 299 299 298 298 297 298 298 298 300 301 302 300 299 301 300 301 301 303 304 303 306 305 300 298 297 304 304 299 296 295 297 301 302 302 297 298
288 289 289 289 289 289 290 290 290 291 291 291 291 292 293 293 293 294 296 298 298 297 298 297 295 296 298 299 300 300 300 299 299 300 300 301 303 297 302 300 300 297 298 298 295 293 295 296 298 300 300 299 300 299
288 288 288 288 288 289 289 290 290 290 290 291 291 292 292 294 293 293 295 296 297 297 298 296 293 294 294 297 299 299 299 298 298 298 299 300 296 297 294 295 299 293 296 299 301 295 299 300 303 304 300 299 300 297
287 288 288 288 288 289 289 289 289 289 290 290 290 291 292 293 293 294 296 296 297 297 296 294 293 292 293 294 295 297 297 298 297 298 296 294 294 296 299 300 295 295 295 299 296 298 301 300 303 303 302 301 299 294
287 288 288 288 288 288 288 289 289 289 289 290 290 291 291 293 294 294 296 296 296 297 296 293 292 290 292 293 294 294 296 295 296 295 296 293 292 296 296 297 296 294 294 295 299 298 296 297 296 298 300 299 297 293
287 287 287 288 288 288 288 289 289 289 290 290 290 290 291 292 293 294 293 295 295 296 296 297 292 292 292 293 292 292 293 294 294 294 293 293 292 294 295 295 293 292 293 294 295 294 294 294 293 293 293 293 293 293
287 287 287 287 287 288 288 288 289 289 289 290 290 291 291 292 292 294 293 293 295 296 296 291 290 293 292 293 292 292 294 292 292 292 293 293 291 292 290 290 288 288 290 291 291 292 292 292 292 292 293 293 293 293
286 286 286 287 287 287 288 288 288 288 289 290 290 291 292 291 291 293 294 295 294 296 295 295 293 291 293 293 293 291 294 288 286 290 292 287 286 283 280 280 282 285 287 290 292 292 291 291 291 292 292 292 292 292
286 286 286 286 286 287 288 288 289 288 289 289 291 292 292 292 292 293 295 296 295 296 295 293 292 291 293 290 290 293 287 288 291 287 287 285 284 282 277 279 281 283 285 287 287 288 289 290 290 291 291 292 292 292
286 286 286 287 287 288 288 288 289 290 289 289 291 291 291 294 294 294 295 296 295 294 289 289 290 292 292 294 289 289 288 291 288 289 286 286 281 272 275 277 279 281 283 284 286 287 287 288 289 289 290 290 290 290
285 285 285 285 287 287 288 289 291 292 289 289 291 292 293 292 294 295 294 293 291 289 290 291 290 290 292 293 288 292 286 287 290 286 286 279 274 271 272 274 275 277 279 280 281 282 284 285 286 287 287 287 287 287
282 285 284 285 286 287 289 291 291 291 289 290 291 292 291 292 293 292 293 292 291 290 290 292 291 291 292 288 291 292 290 287 290 285 284 273 268 267 269 271 274 275 276 278 279 280 281 282 283 284 284 285 285 285
281 284 282 284 284 287 289 292 292 290 290 291 292 292 290 282 279 278 281 287 290 292 292 291 292 292 289 292 290 289 289 290 286 283 272 267 266 267 269 270 271 273 274 276 276 277 278 279 280 281 281 281 281 281
281 281 281 282 284 286 290 290 289 290 287 283 278 283 281 284 283 283 285 287 292 292 293 292 292 292 292 291 290 290 290 285 275 266 267 266 266 267 268 269 270 271 272 273 274 275 276 277 277 277 276 276 277 277
281 280 280 281 284 285 288 289 288 282 278 278 275 273 275 278 276 276 276 278 285 291 287 292 292 291 291 288 280 271 271 268 268 265 264 265 266 266 267 267 268 269 271 272 273 273 274 274 274 273 275 274 273 273
280 279 279 280 283 286 286 282 280 276 275 273 273 273 269 268 271 270 271 274 280 285 283 280 279 276 273 279 271 267 267 265 265 264 264 264 265 265 266 267 268 269 270 271 271 271 271 271 271 272 271 271 270 270
278 279 279 280 283 285 280 278 277 273 272 273 273 272 270 268 267 267 269 270 272 275 271 268 264 265 263 263 263 262 262 262 263 263 263 264 265 266 266 267 267 268 268 268 268 269 269 269 269 269 269 270 270 270
278 278 279 280 281 283 276 274 275 274 273 272 271 270 268 266 266 266 265 265 265 262 259 260 259 259 259 259 259 260 260 262 263 264 263 263 264 265 265 266 267 267 267 267 268 268 268 268 268 268 268 268 268 268
277 278 279 280 280 278 272 272 272 272 272 271 271 270 268 266 263 263 262 261 259 259 259 257 257 257 258 258 260 260 261 262 263 263 262 262 263 264 264 265 265 266 266 266 266 266 266 267 267 267 267 267 267 266
277 278 278 277 275 273 271 271 271 272 271 270 269 268 267 265 263 261 261 259 258 257 256 256 257 258 259 259 260 261 261 261 261 262 262 262 263 263 264 264 264 265 265 265 265 266 266 265 265 265 265 266 266 265
277 275 273 272 272 270 269 270 271 270 272 270 268 267 266 264 262 262 260 258 257 256 257 258 258 258 258 259 260 261 261 261 262 262 262 262 262 262 263 264 264 264 264 264 264 264 264 264 264 264 264 264 264 264
273 268 263 261 262 263 267 266 267 268 268 268 267 265 263 264 262 260 258 257 257 257 257 258 259 259 259 260 261 261 261 261 262 262 262 262 262 262 262 262 263 263 263 263 262 263 263 263 263 263 263 263 263 263
265 256 258 255 259 261 263 263 263 266 265 266 265 264 263 262 261 259 258 257 256 256 257 258 258 259 259 259 259 260 261 261 261 262 261 262 262 261 262 262 262 262 262 261 262 262 262 262 262 262 262 262 262 262
253 256 255 254 256 257 258 259 259 259 262 262 262 262 261 260 258 257 257 256 256 256 257 257 258 258 259 259 260 260 260 260 260 261 261 261 261 261 261 261 261 261 261 261 261 261 261 261 261 261 261 261 261 261
254 254 257 255 254 255 256 256 255 256 255 256 257 259 259 258 256 256 256 256 256 256 257 258 258 259 259 259 259 260 260 260 260 260 260 260 260 260 260 260 260 260 260 260 260 260 260 260 260 260 260 260 261 260
255 254 254 255 254 254 251 252 252 252 252 252 255 255 255 255 255 255 255 255 256 257 257 258 259 259 259 260 260 260 260 260 260 260 260 260 260 259 259 259 258 258 258 258 258 258 258 257 257 257 257 257 258 257
255 254 254 254 254 254 252 253 252 253 252 252 252 253 253 253 254 255 256 256 257 257 258 258 258 258 259 259 259 259 259 259 259 259 258 258 258 258 257 257 257 257 257 257 257 256 256 255 255 255 255 255 255 256
255 255 255 255 253 253 254 254 254 254 254 254 254 254 254 254 255 256 256 257 257 257 258 258 258 258 258 258 258 258 258 258 258 258 258 258 257 257 257 257 257 256 256 256 256 256 256 256 256 256 256 256 256 255
257 258 257 255 254 255 255 256 256 256 255 255 255 255 254 255 256 256 257 257 257 258 257 257 257 257 257 257 257 257 257 257 257 257 257 257 257 256 256 256 256 256 256 256 256 256 255 255 255 255 255 255 255 254
257 255 255 253 255 256 257 258 258 258 258 257 257 257 256 256 257 257 257 257 257 257 256 256 256 256 257 257 257 257 257 257 257 256 256 257 256 256 256 256 256 256 256 256 255 255 254 254 254 255 255 255 255 254
257 257 256 255 255 256 256 256 258 258 257 257 257 256 256 257 257 258 258 257 256 256 256 256 256 256 257 257 257 257 257 256 256 256 256 256 256 256 256 255 255 255 255 255 254 254 255 255 255 255 255 255 255 255